This is the latest recevied weather packets stored in our database for station/object KC8YYF. If no packets are shown the sender has not sent any weather packets the latest 10 day(s).
| Time | Temp. | Humidity | Pressure | Rain* | Wind** | Luminosity | Snow |
|---|---|---|---|---|---|---|---|
| 1777584863 | 11.67° C | 62% | 1015.3 hPa | 0 mm | - | 56 W/m² | - |
| 1777584560 | 11.67° C | 62% | 1015.4 hPa | 0 mm | - | 84 W/m² | - |
| 1777584257 | 13.33° C | 63% | 1015.2 hPa | 0 mm | - | 317 W/m² | - |
| 1777583951 | 11.11° C | 63% | 1015 hPa | 0 mm | - | 91 W/m² | - |
| 1777583647 | 11.67° C | 65% | 1015.2 hPa | 0 mm | - | 286 W/m² | - |
| 1777583346 | 10.56° C | 64% | 1015 hPa | 0 mm | - | 110 W/m² | - |
| 1777583041 | 11.11° C | 64% | 1015.3 hPa | 0 mm | - | 70 W/m² | - |
| 1777582737 | 11.67° C | 63% | 1015.2 hPa | 0 mm | - | 111 W/m² | - |
| 1777582433 | 12.22° C | 64% | 1015.2 hPa | 0 mm | - | 459 W/m² | - |
| 1777582133 | 10.56° C | 66% | 1015.4 hPa | 0 mm | - | 575 W/m² | - |
| 1777581826 | 10.56° C | 64% | 1015.3 hPa | 0 mm | - | 65 W/m² | - |
| 1777581525 | 11.11° C | 67% | 1015.4 hPa | 0 mm | - | 274 W/m² | - |
| 1777581221 | 11.11° C | 76% | 1015.4 hPa | 0 mm | - | 198 W/m² | - |
| 1777580921 | 8.89° C | 74% | 1015.4 hPa | 0 mm | - | 135 W/m² | - |
| 1777580615 | 8.89° C | 81% | 1015.4 hPa | 0 mm | - | 110 W/m² | - |
| 1777580312 | 8.33° C | 85% | 1015.4 hPa | 0.51 mm | - | 98 W/m² | - |
| 1777580008 | 8.33° C | 86% | 1015.5 hPa | 0.51 mm | - | 100 W/m² | - |
| 1777579704 | 8.33° C | 80% | 1015.6 hPa | 0 mm | - | 57 W/m² | - |
| 1777579402 | 8.89° C | 80% | 1015.5 hPa | 0 mm | - | 34 W/m² | - |
| 1777579098 | 8.89° C | 79% | 1015.6 hPa | 0 mm | - | 76 W/m² | - |
| 1777578792 | 8.33° C | 80% | 1015.7 hPa | 0 mm | - | 71 W/m² | - |
| 1777578488 | 8.33° C | 79% | 1015.6 hPa | 0 mm | - | 39 W/m² | - |
| 1777578183 | 8.89° C | 79% | 1015.5 hPa | 0 mm | - | 73 W/m² | - |
| 1777577878 | 8.89° C | 77% | 1015.7 hPa | 0 mm | - | 97 W/m² | - |
| 1777577574 | 8.89° C | 82% | 1015.9 hPa | 0 mm | - | 159 W/m² | - |
* Rain latest hour (hover to see other rain measurements)
** Current wind speed in m/s (hover to see current wind gust speed)